Regional Weather Roundup
Issued by NWS Raleigh/Durham, NC

Home | Current Version | Previous Version | Text Only | Print | Product List | Glossary On
Versions: 1 2 3 4 5 6 7 8 9 10 11 12 13 14 15 16 17 18 19 20 21 22 23 24 25 26 27 28 29 30 31 32 33 34 35 36 37 38 39 40 41 42 43 44 45 46 47 48 49 50
000
ASUS42 KRAH 231910
RWRRAH
NORTH CAROLINA WEATHER ROUNDUP
NATIONAL WEATHER SERVICE RALEIGH NC
300 PM EDT WED AUG 23 2017

NOTE: "FAIR" INDICATES FEW OR NO CLOUDS BELOW 12,000 FEET WITH NO
SIGNIFICANT WEATHER AND/OR OBSTRUCTIONS TO VISIBILITY.

NCZ001-053-055-056-065-067-232000-
WESTERN NORTH CAROLINA

CITY           SKY/WX    TMP DP  RH WIND       PRES   REMARKS
ASHEVILLE      SUNNY     82  63  52 N14G24    29.99F
JEFFERSON      CLOUDY    75  60  59 NW6       30.03F
MORGANTON      PTSUNNY   86  67  52 NW6       29.95F
HICKORY        PTSUNNY   87  70  56 VRB5      29.90F
RUTHERFORDTON  MOSUNNY   84  71  63 NW5       29.92F
MOUNT AIRY     CLOUDY    85  67  54 CALM      29.93F
BOONE          MOSUNNY   75  57  53 NW9       30.04F
$$

NCZ021-022-025-041-071-084-088-232000-
CENTRAL NORTH CAROLINA

CITY           SKY/WX    TMP DP  RH WIND       PRES   REMARKS
CHARLOTTE      PTSUNNY   91  71  51 W6        29.87F THUNDER HX  97
GREENSBORO     CLOUDY    84  70  62 NW13      29.88F
WINSTON-SALEM  CLOUDY    87  69  54 N13       29.90F
RALEIGH-DURHAM PTSUNNY   91  72  53 NE8       29.84F THUNDER HX  98
FORT BRAGG     SUNNY     95  69  42 W8        29.82F HX 100
FAYETTEVILLE   MOSUNNY   94  70  45 S9        29.82F HX 100
BURLINGTON     TSTM      79  72  79 N16G26    29.87S
LAURINBURG     MOSUNNY   95  72  47 SW12      29.84F HX 103
$$

NCZ011-015-027-028-043-044-047-080-103-232000-
NORTHEASTERN NORTH CAROLINA

CITY           SKY/WX    TMP DP  RH WIND       PRES   REMARKS
ROCKY MT-WILSO LGT RAIN  88  76  67 SW12G17   29.83F HX  99
GREENVILLE     CLOUDY    91  73  55 W3        29.85F HX 100
WASHINGTON     MOSUNNY   90  75  61 SW5       29.82F HX  99
ELIZABETH CITY SUNNY     91  78  65 S8        29.81F HX 106
MANTEO         LGT RAIN  79  71  75 S7        29.87S
CAPE HATTERAS  SUNNY     88  80  77 SW9G17    29.87F HX 104
$$

NCZ078-087-090-091-093-098-101-232000-
SOUTHEASTERN NORTH CAROLINA

CITY           SKY/WX    TMP DP  RH WIND       PRES   REMARKS
LUMBERTON      PTSUNNY   94  73  50 S7        29.83F HX 103
GOLDSBORO      MOSUNNY   94  73  50 W6        29.82F HX 103
KENANSVILLE    PTSUNNY   91  72  52 W6        29.84F HX  98
NEW BERN       MOSUNNY   92  75  57 SW9       29.84F HX 103
CHERRY POINT   SUNNY     91  77  63 S15       29.85F HX 104
BEAUFORT       MOSUNNY   86  80  82 SW21      29.86F HX 101
JACKSONVILLE   PTSUNNY   91  80  70 S9        29.84F HX 109
WILMINGTON     MOSUNNY   92  74  55 S6        29.85F HX 101
$$




USA.gov is the U.S. government's official web portal to all federal, state and local government web resources and services.